| time (UTC) | temp F | wind direction | speed knots | gust knots | rain 1hr in | rain 24hr in | rain mn in | humidity % | barometer mb |
| 20260504034503 | 60 | 360 | 5.2 | 9.6 | 0.00 | 0.00 | 0.00 | 35 | 1005.1 |
| 20260504034003 | 60 | 360 | 5.2 | 11.3 | 0.00 | 0.00 | 0.00 | 35 | 1005.1 |
| 20260504033502 | 60 | 360 | 5.2 | 12.2 | 0.00 | 0.00 | 0.00 | 36 | 1005.0 |
| 20260504033002 | 60 | 360 | 6.1 | 12.2 | 0.00 | 0.00 | 0.00 | 35 | 1005.0 |
| 20260504032503 | 60 | 360 | 7.0 | 13.0 | 0.00 | 0.00 | 0.00 | 35 | 1005.1 |
| 20260504032002 | 60 | 360 | 7.0 | 13.0 | 0.00 | 0.00 | 0.00 | 35 | 1005.1 |
| 20260504031506 | 60 | 360 | 7.0 | 13.0 | 0.00 | 0.00 | 0.00 | 36 | 1005.2 |
| 20260504031001 | 61 | 360 | 5.2 | 10.4 | 0.00 | 0.00 | 0.00 | 36 | 1005.1 |
| 20260504030502 | 61 | 360 | 6.1 | 12.2 | 0.00 | 0.00 | 0.00 | 34 | 1005.1 |
| 20260504030002 | 61 | 360 | 6.1 | 13.9 | 0.00 | 0.00 | 0.00 | 34 | 1005.2 |
| 20260504025502 | 61 | 360 | 7.8 | 15.6 | 0.00 | 0.00 | 0.00 | 33 | 1005.0 |
| 20260504025004 | 61 | 360 | 6.1 | 15.6 | 0.00 | 0.00 | 0.00 | 34 | 1005.0 |
| 20260504024502 | 61 | 360 | 6.1 | 13.9 | 0.00 | 0.00 | 0.00 | 34 | 1004.9 |
| 20260504024100 | 61 | 360 | 7.0 | 13.9 | 0.00 | 0.00 | 0.00 | 34 | 1005.0 |
| 20260504023559 | 61 | 360 | 3.5 | 9.6 | 0.00 | 0.00 | 0.00 | 34 | 1005.0 |
| 20260504023059 | 61 | 360 | 2.6 | 9.6 | 0.00 | 0.00 | 0.00 | 34 | 1005.0 |
| 20260504022603 | 61 | 360 | 4.3 | 12.2 | 0.00 | 0.00 | 0.00 | 34 | 1004.9 |
| 20260504022102 | 61 | 360 | 7.8 | 12.2 | 0.00 | 0.00 | 0.00 | 34 | 1004.9 |
| 20260504021559 | 61 | 360 | 7.0 | 13.0 | 0.00 | 0.00 | 0.00 | 34 | 1004.9 |
| 20260504021201 | 61 | 360 | 6.1 | 13.9 | 0.00 | 0.00 | 0.00 | 35 | 1004.9 |
| 20260504020559 | 61 | 360 | 7.0 | 14.8 | 0.00 | 0.00 | 0.00 | 35 | 1005.0 |
| 20260504020107 | 61 | 360 | 8.7 | 14.8 | 0.00 | 0.00 | 0.00 | 35 | 1005.1 |
| 20260504015559 | 61 | 360 | 7.0 | 12.2 | 0.00 | 0.00 | 0.00 | 35 | 1005.2 |
| 20260504015059 | 61 | 360 | 6.1 | 13.9 | 0.00 | 0.00 | 0.00 | 36 | 1005.4 |
| 20260504014606 | 61 | 360 | 7.0 | 13.9 | 0.00 | 0.00 | 0.00 | 36 | 1005.4 |
| 20260504014057 | 61 | 360 | 8.7 | 13.9 | 0.00 | 0.00 | 0.00 | 38 | 1005.4 |
| 20260504013557 | 61 | 360 | 9.6 | 15.6 | 0.00 | 0.00 | 0.00 | 36 | 1005.3 |
| 20260504013058 | 61 | 360 | 9.6 | 15.6 | 0.00 | 0.00 | 0.00 | 36 | 1005.4 |
| 20260504012557 | 61 | 360 | 9.6 | 18.2 | 0.00 | 0.00 | 0.00 | 36 | 1005.3 |
| 20260504012057 | 61 | 360 | 8.7 | 18.2 | 0.00 | 0.00 | 0.00 | 36 | 1005.3 |
| 20260504011557 | 61 | 360 | 9.6 | 18.2 | 0.00 | 0.00 | 0.00 | 36 | 1005.3 |
| 20260504011058 | 62 | 360 | 10.4 | 18.2 | 0.00 | 0.00 | 0.00 | 36 | 1005.2 |
| 20260504010556 | 62 | 360 | 11.3 | 18.2 | 0.00 | 0.00 | 0.00 | 35 | 1004.9 |
| 20260504010101 | 62 | 360 | 9.6 | 16.5 | 0.00 | 0.00 | 0.00 | 35 | 1004.9 |
| 20260504005556 | 63 | 360 | 9.6 | 18.2 | 0.00 | 0.00 | 0.00 | 35 | 1004.8 |
| 20260504005056 | 63 | 360 | 10.4 | 18.2 | 0.00 | 0.00 | 0.00 | 34 | 1004.6 |
| 20260504004556 | 64 | 360 | 10.4 | 18.2 | 0.00 | 0.00 | 0.00 | 33 | 1004.7 |
| 20260504004056 | 64 | 360 | 12.2 | 18.2 | 0.00 | 0.00 | 0.00 | 33 | 1004.6 |
| 20260504003555 | 63 | 360 | 11.3 | 18.2 | 0.00 | 0.00 | 0.00 | 34 | 1004.5 |
| 20260504003058 | 63 | 360 | 8.7 | 15.6 | 0.00 | 0.00 | 0.00 | 33 | 1004.4 |
| 20260504002554 | 64 | 360 | 9.6 | 20.0 | 0.00 | 0.00 | 0.00 | 33 | 1004.3 |
| 20260504002054 | 64 | 360 | 11.3 | 20.0 | 0.00 | 0.00 | 0.00 | 31 | 1004.1 |
| 20260504001559 | 64 | 360 | 12.2 | 18.2 | 0.00 | 0.00 | 0.00 | 31 | 1004.3 |
| 20260504001053 | 63 | 360 | 11.3 | 20.9 | 0.00 | 0.00 | 0.00 | 32 | 1004.4 |
| 20260504000554 | 63 | 360 | 12.2 | 23.5 | 0.00 | 0.00 | 0.00 | 33 | 1004.3 |
| 20260504000059 | 63 | 360 | 11.3 | 23.5 | 0.00 | 0.00 | 0.00 | 33 | 1004.3 |
| 20260503235553 | 63 | 360 | 12.2 | 19.1 | 0.00 | 0.00 | 0.00 | 33 | 1004.3 |
| 20260503235053 | 64 | 360 | 11.3 | 22.6 | 0.00 | 0.00 | 0.00 | 33 | 1004.2 |
| 20260503234552 | 64 | 360 | 13.0 | 24.3 | 0.00 | 0.00 | 0.00 | 34 | 1004.1 |
| 20260503234052 | 64 | 360 | 14.8 | 24.3 | 0.00 | 0.00 | 0.00 | 34 | 1004.1 |
| 20260503233553 | 63 | 360 | 13.0 | 26.9 | 0.00 | 0.00 | 0.00 | 35 | 1004.1 |
| 20260503233053 | 64 | 360 | 17.4 | 26.9 | 0.00 | 0.00 | 0.00 | 34 | 1004.1 |
| 20260503232555 | 64 | 360 | 15.6 | 26.1 | 0.00 | 0.00 | 0.00 | 34 | 1004.0 |
| 20260503232052 | 64 | 360 | 14.8 | 24.3 | 0.00 | 0.00 | 0.00 | 34 | 1003.6 |
| 20260503231550 | 64 | 360 | 15.6 | 26.9 | 0.00 | 0.00 | 0.00 | 33 | 1003.4 |
| 20260503231051 | 66 | 360 | 18.2 | 26.9 | 0.00 | 0.00 | 0.00 | 31 | 1003.4 |
| 20260503230550 | 70 | 360 | 11.3 | 19.1 | 0.00 | 0.00 | 0.00 | 23 | 1003.4 |
| 20260503230108 | 68 | 360 | 6.1 | 19.1 | 0.00 | 0.00 | 0.00 | 22 | 1003.2 |
| 20260503225549 | 68 | 360 | 6.1 | 24.3 | 0.00 | 0.00 | 0.00 | 24 | 1003.2 |
| 20260503225049 | 67 | 360 | 14.8 | 24.3 | 0.00 | 0.00 | 0.00 | 25 | 1003.3 |
| 20260503224550 | 67 | 360 | 12.2 | 21.7 | 0.00 | 0.00 | 0.00 | 25 | 1003.5 |
| 20260503224049 | 68 | 360 | 12.2 | 24.3 | 0.00 | 0.00 | 0.00 | 25 | 1003.9 |
| 20260503223549 | 68 | 360 | 14.8 | 31.3 | 0.00 | 0.00 | 0.00 | 24 | 1003.7 |
| 20260503223106 | 68 | 360 | 14.8 | 31.3 | 0.00 | 0.00 | 0.00 | 25 | 1003.5 |
| 20260503222548 | 68 | 360 | 15.6 | 30.4 | 0.00 | 0.00 | 0.00 | 26 | 1003.0 |
| 20260503222048 | 70 | 360 | 15.6 | 30.4 | 0.00 | 0.00 | 0.00 | 24 | 1002.8 |
| 20260503221551 | 69 | 360 | 13.9 | 29.5 | 0.00 | 0.00 | 0.00 | 25 | 1002.7 |
| 20260503221048 | 69 | 360 | 15.6 | 31.3 | 0.00 | 0.00 | 0.00 | 23 | 1003.0 |
| 20260503220548 | 70 | 360 | 13.0 | 33.0 | 0.00 | 0.00 | 0.00 | 23 | 1003.1 |
| 20260503220050 | 72 | 360 | 22.6 | 33.0 | 0.00 | 0.00 | 0.00 | 20 | 1002.7 |
| 20260503215547 | 76 | 360 | 12.2 | 24.3 | 0.00 | 0.00 | 0.00 | 16 | 1002.9 |
| 20260503215046 | 77 | 360 | 5.2 | 11.3 | 0.00 | 0.00 | 0.00 | 13 | 1002.6 |
| 20260503214555 | 77 | 360 | 4.3 | 11.3 | 0.00 | 0.00 | 0.00 | 13 | 1002.6 |
| 20260503214046 | 77 | 360 | 4.3 | 12.2 | 0.00 | 0.00 | 0.00 | 13 | 1002.6 |
| 20260503213546 | 78 | 360 | 2.6 | 12.2 | 0.00 | 0.00 | 0.00 | 13 | 1002.6 |
| 20260503213046 | 78 | 360 | 4.3 | 11.3 | 0.00 | 0.00 | 0.00 | 13 | 1002.8 |
| 20260503212544 | 78 | 360 | 4.3 | 11.3 | 0.00 | 0.00 | 0.00 | 13 | 1002.9 |
| 20260503212042 | 78 | 360 | 2.6 | 9.6 | 0.00 | 0.00 | 0.00 | 13 | 1003.0 |
| 20260503211542 | 78 | 360 | 1.7 | 13.0 | 0.00 | 0.00 | 0.00 | 13 | 1003.1 |
| 20260503211041 | 78 | 360 | 6.1 | 13.0 | 0.00 | 0.00 | 0.00 | 13 | 1003.2 |
| 20260503210541 | 78 | 360 | 0.9 | 7.0 | 0.00 | 0.00 | 0.00 | 13 | 1003.1 |
| 20260503210040 | 77 | 360 | 1.7 | 7.8 | 0.00 | 0.00 | 0.00 | 13 | 1003.2 |
| 20260503205539 | 78 | 360 | 2.6 | 10.4 | 0.00 | 0.00 | 0.00 | 13 | 1003.3 |
| 20260503205039 | 78 | 360 | 4.3 | 8.7 | 0.00 | 0.00 | 0.00 | 13 | 1003.4 |
| 20260503204543 | 77 | 360 | 0.0 | 7.8 | 0.00 | 0.00 | 0.00 | 13 | 1003.4 |
| 20260503204037 | 77 | 360 | 3.5 | 9.6 | 0.00 | 0.00 | 0.00 | 13 | 1003.5 |
| 20260503203536 | 78 | 360 | 3.5 | 10.4 | 0.00 | 0.00 | 0.00 | 13 | 1003.6 |
| 20260503203035 | 78 | 360 | 2.6 | 12.2 | 0.00 | 0.00 | 0.00 | 13 | 1003.6 |
| 20260503202535 | 78 | 360 | 2.6 | 10.4 | 0.00 | 0.00 | 0.00 | 13 | 1003.7 |
| 20260503202036 | 78 | 360 | 4.3 | 10.4 | 0.00 | 0.00 | 0.00 | 13 | 1003.8 |
| 20260503201535 | 78 | 360 | 4.3 | 7.8 | 0.00 | 0.00 | 0.00 | 13 | 1003.9 |
| 20260503201032 | 77 | 360 | 2.6 | 7.0 | 0.00 | 0.00 | 0.00 | 14 | 1004.0 |
| 20260503200532 | 77 | 360 | 1.7 | 11.3 | 0.00 | 0.00 | 0.00 | 14 | 1004.0 |
| 20260503200031 | 77 | 90 | 3.5 | 12.2 | 0.00 | 0.00 | 0.00 | 14 | 1004.2 |
| 20260503195530 | 79 | 360 | 7.8 | 12.2 | 0.00 | 0.00 | 0.00 | 13 | 1004.2 |
| 20260503195028 | 80 | 360 | 1.7 | 7.0 | 0.00 | 0.00 | 0.00 | 13 | 1004.4 |
| 20260503194529 | 80 | 360 | 2.6 | 8.7 | 0.00 | 0.00 | 0.00 | 13 | 1004.5 |
| 20260503194027 | 80 | 360 | 2.6 | 8.7 | 0.00 | 0.00 | 0.00 | 13 | 1004.6 |
| 20260503193525 | 80 | 360 | 2.6 | 5.2 | 0.00 | 0.00 | 0.00 | 13 | 1004.7 |
| 20260503193024 | 79 | 360 | 0.9 | 10.4 | 0.00 | 0.00 | 0.00 | 14 | 1004.8 |
| 20260503192524 | 79 | 360 | 5.2 | 10.4 | 0.00 | 0.00 | 0.00 | 13 | 1004.9 |
| 20260503192021 | 79 | 360 | 3.5 | 9.6 | 0.00 | 0.00 | 0.00 | 14 | 1004.9 |
| 20260503191521 | 79 | 360 | 2.6 | 10.4 | 0.00 | 0.00 | 0.00 | 14 | 1005.0 |
| 20260503191019 | 78 | 360 | 3.5 | 10.4 | 0.00 | 0.00 | 0.00 | 14 | 1005.1 |
| 20260503190519 | 78 | 360 | 3.5 | 9.6 | 0.00 | 0.00 | 0.00 | 14 | 1005.3 |
| 20260503190017 | 77 | 360 | 3.5 | 5.2 | 0.00 | 0.00 | 0.00 | 15 | 1005.4 |
| 20260503185517 | 77 | 360 | 1.7 | 5.2 | 0.00 | 0.00 | 0.00 | 15 | 1005.4 |
| 20260503185018 | 76 | 360 | 1.7 | 5.2 | 0.00 | 0.00 | 0.00 | 17 | 1005.6 |
| 20260503184514 | 75 | 360 | 2.6 | 7.0 | 0.00 | 0.00 | 0.00 | 18 | 1005.7 |
| 20260503184013 | 74 | 360 | 2.6 | 9.6 | 0.00 | 0.00 | 0.00 | 16 | 1005.7 |
| 20260503183516 | 75 | 360 | 2.6 | 9.6 | 0.00 | 0.00 | 0.00 | 16 | 1005.7 |
| 20260503183012 | 76 | 360 | 3.5 | 8.7 | 0.00 | 0.00 | 0.00 | 16 | 1005.7 |
| 20260503182512 | 75 | 360 | 0.9 | 7.0 | 0.00 | 0.00 | 0.00 | 17 | 1005.8 |
| 20260503182010 | 76 | 360 | 2.6 | 5.2 | 0.00 | 0.00 | 0.00 | 17 | 1005.9 |
| 20260503181523 | 75 | 360 | 1.7 | 8.7 | 0.00 | 0.00 | 0.00 | 17 | 1006.0 |
| 20260503181008 | 74 | 360 | 2.6 | 8.7 | 0.00 | 0.00 | 0.00 | 18 | 1006.1 |
| 20260503180507 | 74 | 360 | 4.3 | 7.8 | 0.00 | 0.00 | 0.00 | 19 | 1006.2 |
| 20260503180014 | 73 | 360 | 0.9 | 4.3 | 0.00 | 0.00 | 0.00 | 19 | 1006.2 |
| 20260503175507 | 73 | 360 | 1.7 | 7.0 | 0.00 | 0.00 | 0.00 | 19 | 1006.3 |
| 20260503175004 | 73 | 360 | 0.9 | 5.2 | 0.00 | 0.00 | 0.00 | 20 | 1006.4 |
| 20260503174503 | 73 | 360 | 1.7 | 5.2 | 0.00 | 0.00 | 0.00 | 21 | 1006.4 |
| 20260503174004 | 72 | 360 | 0.9 | 5.2 | 0.00 | 0.00 | 0.00 | 21 | 1006.4 |
| 20260503173600 | 72 | 360 | 2.6 | 5.2 | 0.00 | 0.00 | 0.00 | 22 | 1006.4 |
| 20260503173501 | 72 | 360 | 1.7 | 5.2 | 0.00 | 0.00 | 0.00 | 22 | 1006.4 |
| 20260503173112 | 71 | 360 | 1.7 | 4.3 | 0.00 | 0.00 | 0.00 | 22 | 1006.5 |
| 20260503172601 | 70 | 360 | 0.0 | 5.2 | 0.00 | 0.00 | 0.00 | 23 | 1006.5 |
| 20260503172057 | 70 | 360 | 1.7 | 5.2 | 0.00 | 0.00 | 0.00 | 23 | 1006.6 |
| 20260503171557 | 70 | 360 | 0.9 | 4.3 | 0.00 | 0.00 | 0.00 | 23 | 1006.5 |
| 20260503171057 | 70 | 360 | 2.6 | 5.2 | 0.00 | 0.00 | 0.00 | 23 | 1006.6 |
| 20260503170556 | 70 | 360 | 1.7 | 5.2 | 0.00 | 0.00 | 0.00 | 24 | 1006.6 |
| 20260503170107 | 69 | 360 | 0.0 | 5.2 | 0.00 | 0.00 | 0.00 | 24 | 1006.6 |
| 20260503150534 | 60 | 360 | 1.7 | 5.2 | 0.00 | 0.00 | 0.00 | 39 | 1007.1 |
| 20260503131029 | 57 | 360 | 2.6 | 9.6 | 0.00 | 0.00 | 0.00 | 48 | 1007.0 |
| 20260503130531 | 57 | 360 | 4.3 | 9.6 | 0.00 | 0.00 | 0.00 | 49 | 1007.1 |
| 20260503110521 | 58 | 360 | 5.2 | 11.3 | 0.00 | 0.00 | 0.00 | 43 | 1007.6 |
| 20260503081554 | 60 | 360 | 7.8 | 12.2 | 0.00 | 0.00 | 0.00 | 40 | 1008.9 |
| 20260503081053 | 59 | 360 | 6.1 | 9.6 | 0.00 | 0.00 | 0.00 | 45 | 1009.0 |
| 20260503080552 | 59 | 360 | 3.5 | 7.8 | 0.00 | 0.00 | 0.00 | 43 | 1009.1 |
| 20260503072548 | 60 | 360 | 2.6 | 7.8 | 0.00 | 0.00 | 0.00 | 41 | 1009.7 |
| 20260503072046 | 60 | 360 | 2.6 | 7.8 | 0.00 | 0.00 | 0.00 | 39 | 1009.7 |
| 20260503071544 | 59 | 360 | 1.7 | 7.8 | 0.00 | 0.00 | 0.00 | 40 | 1009.6 |
| 20260503071042 | 59 | 360 | 4.3 | 9.6 | 0.00 | 0.00 | 0.00 | 41 | 1009.5 |
| 20260503070541 | 59 | 360 | 6.1 | 11.3 | 0.00 | 0.00 | 0.00 | 41 | 1009.4 |
| 20260503055036 | 60 | 360 | 4.3 | 12.2 | 0.00 | 0.00 | 0.00 | 43 | 1009.6 |
| 20260503054539 | 60 | 360 | 7.8 | 14.8 | 0.00 | 0.00 | 0.00 | 41 | 1009.5 |
| 20260503054037 | 60 | 360 | 7.8 | 14.8 | 0.00 | 0.00 | 0.00 | 41 | 1009.4 |
| 20260503053535 | 60 | 360 | 7.0 | 9.6 | 0.00 | 0.00 | 0.00 | 41 | 1009.5 |
| 20260503053035 | 60 | 360 | 5.2 | 9.6 | 0.00 | 0.00 | 0.00 | 41 | 1009.6 |
| 20260503052536 | 60 | 360 | 3.5 | 7.8 | 0.00 | 0.00 | 0.00 | 41 | 1009.8 |
| 20260503052035 | 60 | 360 | 2.6 | 7.0 | 0.00 | 0.00 | 0.00 | 41 | 1009.8 |
| 20260503051535 | 60 | 360 | 1.7 | 8.7 | 0.00 | 0.00 | 0.00 | 41 | 1009.8 |
| 20260503051034 | 61 | 360 | 4.3 | 8.7 | 0.00 | 0.00 | 0.00 | 41 | 1009.4 |
| 20260503050534 | 61 | 360 | 3.5 | 8.7 | 0.00 | 0.00 | 0.00 | 39 | 1009.8 |
| 20260503050035 | 61 | 360 | 4.3 | 8.7 | 0.00 | 0.00 | 0.00 | 39 | 1010.2 |
| 20260503045533 | 61 | 360 | 3.5 | 5.2 | 0.00 | 0.00 | 0.00 | 42 | 1010.3 |
| 20260503045034 | 61 | 360 | 0.0 | 3.5 | 0.00 | 0.00 | 0.00 | 40 | 1010.6 |
| 20260503044538 | 61 | 360 | 0.9 | 4.3 | 0.00 | 0.00 | 0.00 | 39 | 1010.7 |
| 20260503044033 | 61 | 360 | 2.6 | 5.2 | 0.00 | 0.00 | 0.00 | 38 | 1010.5 |
| 20260503043532 | 61 | 360 | 2.6 | 7.8 | 0.00 | 0.00 | 0.00 | 37 | 1010.1 |
| 20260503043032 | 62 | 360 | 3.5 | 7.8 | 0.00 | 0.00 | 0.00 | 37 | 1009.9 |
| 20260503042534 | 62 | 360 | 0.9 | 10.4 | 0.00 | 0.00 | 0.00 | 37 | 1009.8 |
| 20260503042031 | 62 | 360 | 6.1 | 11.3 | 0.00 | 0.00 | 0.00 | 37 | 1009.8 |
| 20260503041535 | 62 | 360 | 5.2 | 11.3 | 0.00 | 0.00 | 0.00 | 36 | 1009.8 |
| 20260503041030 | 63 | 360 | 7.0 | 10.4 | 0.00 | 0.00 | 0.00 | 34 | 1009.6 |
| 20260503040530 | 64 | 360 | 2.6 | 7.8 | 0.00 | 0.00 | 0.00 | 29 | 1009.5 |
| 20260503040035 | 64 | 360 | 2.6 | 7.0 | 0.00 | 0.00 | 0.00 | 29 | 1009.4 |
| 20260503035530 | 64 | 360 | 1.7 | 9.6 | 0.00 | 0.00 | 0.00 | 29 | 1009.4 |
| 20260503035030 | 64 | 360 | 5.2 | 10.4 | 0.00 | 0.00 | 0.00 | 29 | 1009.2 |